Track STARLINK-3603 now! 10-day predictions STARLINK-3603 is classified as:
1 51816U 22017BA 22186.25001157 -.00015828 00000-0 -97866-3 0 9998 2 51816 53.2165 240.0388 0001377 99.6237 114.9528 15.08835814 21448